FW7743 Weather Reports


time (UTC)temp
C
wind
direction
speed
KPH
gust
KPH
rain 1hr
cm
rain 24hr
cm
rain mn
cm
humidity
%
barometer
mb
20260504081720 6 217 1.6 1.6 0.00 0.00 0.00 71 1010.2
20260504081216 7 212 0.0 1.6 0.00 0.00 0.00 69 1010.3
20260504080712 7 220 1.6 1.6 0.00 0.00 0.00 69 1010.3
20260504080209 7 237 1.6 1.6 0.00 0.00 0.00 69 1010.2
20260504070137 7 218 1.6 1.6 0.00 0.00 0.00 70 1010.5
20260504050525 8 198 1.6 1.6 0.00 0.00 0.00 65 1010.6
20260504050022 9 206 1.6 3.2 0.00 0.00 0.00 65 1010.6
20260504045519 9 271 3.2 3.2 0.00 0.00 0.00 62 1010.6
20260504045014 9 190 6.4 8.0 0.00 0.00 0.00 62 1010.7
20260504044512 9 219 1.6 3.2 0.00 0.00 0.00 63 1010.5
20260504044009 10 175 4.8 4.8 0.00 0.00 0.00 61 1010.4
20260504043506 10 251 0.0 0.0 0.00 0.00 0.00 61 1010.7
20260504043003 10 259 1.6 3.2 0.00 0.00 0.00 62 1010.6
20260504042500 10 207 1.6 3.2 0.00 0.00 0.00 63 1010.7
20260504041957 10 172 3.2 3.2 0.00 0.00 0.00 59 1010.6
20260504041453 10 202 1.6 3.2 0.00 0.00 0.00 60 1010.6
20260504040948 10 223 0.0 0.0 0.00 0.00 0.00 60 1010.7
20260504040447 10 275 4.8 4.8 0.00 0.00 0.00 59 1010.6
20260504035942 10 187 1.6 3.2 0.00 0.00 0.00 59 1010.6
20260504035440 10 166 1.6 1.6 0.00 0.00 0.00 62 1010.6
20260504034936 10 197 0.0 0.0 0.00 0.00 0.00 62 1010.6
20260504034434 10 178 1.6 1.6 0.00 0.00 0.00 61 1010.7
20260504033931 10 181 3.2 3.2 0.00 0.00 0.00 62 1010.7
20260504033429 10 124 3.2 3.2 0.00 0.00 0.00 62 1010.8
20260504032926 10 176 0.0 0.0 0.00 0.00 0.00 61 1010.8
20260504032422 10 222 0.0 0.0 0.00 0.00 0.00 60 1010.7
20260504031919 10 175 3.2 4.8 0.00 0.00 0.00 59 1010.7
20260504031417 10 234 0.0 0.0 0.00 0.00 0.00 61 1010.9
20260504030913 10 166 3.2 4.8 0.00 0.00 0.00 60 1011.1
20260504030410 10 278 1.6 1.6 0.00 0.00 0.00 60 1010.9
20260504025906 10 292 0.0 1.6 0.00 0.00 0.00 61 1011.1
20260504025403 10 187 3.2 3.2 0.00 0.00 0.00 61 1011.3
20260504024900 10 196 4.8 4.8 0.00 0.00 0.00 61 1011.3
20260504024356 10 236 0.0 0.0 0.00 0.00 0.00 63 1011.2
20260504023854 10 132 4.8 4.8 0.00 0.00 0.00 61 1010.9
20260504023350 10 175 0.0 1.6 0.00 0.00 0.00 60 1011.2
20260504022845 10 328 1.6 1.6 0.00 0.00 0.00 63 1011.6
20260504022343 10 282 1.6 1.6 0.00 0.00 0.00 62 1011.5
20260504021839 10 40 1.6 1.6 0.00 0.00 0.00 62 1011.7
20260504021337 10 264 3.2 3.2 0.00 0.00 0.00 61 1011.8
20260504020833 10 15 0.0 0.0 0.00 0.00 0.00 60 1011.8
20260504020330 10 57 4.8 4.8 0.00 0.00 0.00 59 1011.9
20260504015826 10 358 0.0 1.6 0.00 0.00 0.00 61 1011.5
20260504015323 10 326 0.0 0.0 0.00 0.00 0.00 61 1011.8
20260504014819 10 26 0.0 1.6 0.00 0.00 0.00 57 1011.7
20260504014315 10 208 0.0 0.0 0.00 0.00 0.00 62 1011.2
20260504013813 10 42 0.0 1.6 0.00 0.00 0.00 61 1011.4
20260504013311 10 284 1.6 1.6 0.00 0.00 0.00 61 1011.3
20260504012807 10 306 1.6 1.6 0.00 0.00 0.00 60 1011.6
20260504012305 10 340 4.8 4.8 0.00 0.00 0.00 58 1011.2
20260504011802 10 65 0.0 1.6 0.00 0.00 0.00 60 1011.2
20260504011258 10 340 0.0 0.0 0.00 0.00 0.00 58 1011.3
20260504010754 9 214 0.0 0.0 0.00 0.00 0.00 63 1011.3
20260504010250 9 351 0.0 0.0 0.00 0.00 0.00 65 1011.3
20260504005747 9 185 3.2 3.2 0.00 0.00 0.00 64 1011.2
20260504005244 9 244 0.0 0.0 0.00 0.00 0.00 67 1011.2
20260504004741 9 236 0.0 1.6 0.00 0.00 0.00 63 1011.1
20260504004238 9 244 1.6 1.6 0.00 0.00 0.00 66 1011.3
20260504003735 9 202 0.0 0.0 0.00 0.00 0.00 66 1010.9
20260504003232 8 206 3.2 3.2 0.00 0.00 0.00 70 1010.8
20260504002729 9 265 1.6 1.6 0.00 0.00 0.00 69 1010.6
20260504002225 9 234 0.0 1.6 0.00 0.00 0.00 68 1010.8
20260504001723 9 229 1.6 1.6 0.00 0.00 0.00 68 1010.6
20260504001220 9 247 4.8 4.8 0.00 0.00 0.00 66 1010.4
20260504000717 9 282 1.6 1.6 0.00 0.00 0.00 65 1010.7
20260504000214 10 205 4.8 4.8 0.00 0.00 0.00 68 1010.9
20260503235712 10 179 1.6 1.6 0.00 0.00 0.00 63 1011.3
20260503235209 10 127 1.6 1.6 0.00 0.00 0.00 66 1011.3
20260503234707 10 170 3.2 3.2 0.00 0.00 0.00 62 1011.1
20260503234205 10 56 4.8 4.8 0.00 0.00 0.00 63 1011.3
20260503233701 10 356 1.6 1.6 0.00 0.00 0.00 62 1011.2
20260503233157 10 68 1.6 4.8 0.00 0.00 0.00 60 1011.3
20260503232654 10 45 6.4 14.5 0.00 0.00 0.00 59 1011.3
20260503232151 10 45 14.5 20.9 0.00 0.00 0.00 53 1011.1
20260503231649 11 313 0.0 0.0 0.00 0.00 0.00 54 1011.2
20260503231145 11 326 1.6 1.6 0.00 0.00 0.00 52 1010.7
20260503230642 11 277 0.0 0.0 0.00 0.00 0.00 52 1010.7
20260503230139 11 236 1.6 1.6 0.00 0.00 0.00 51 1010.7
20260503225637 11 167 3.2 3.2 0.00 0.00 0.00 52 1010.6
20260503225136 11 117 6.4 8.0 0.00 0.00 0.00 51 1010.5
20260503224634 11 72 3.2 3.2 0.00 0.00 0.00 51 1010.4
20260503224132 11 175 1.6 3.2 0.00 0.00 0.00 52 1010.5
20260503223630 11 130 1.6 1.6 0.00 0.00 0.00 52 1010.6
20260503223125 11 155 0.0 1.6 0.00 0.00 0.00 51 1010.4
20260503222623 11 57 0.0 0.0 0.00 0.00 0.00 52 1010.5
20260503222121 11 133 8.0 8.0 0.00 0.00 0.00 51 1010.5
20260503221619 11 171 3.2 4.8 0.00 0.00 0.00 52 1010.4
20260503221116 11 181 1.6 3.2 0.00 0.00 0.00 52 1010.6
20260503220613 11 191 3.2 3.2 0.00 0.00 0.00 51 1010.5
20260503220109 11 237 0.0 1.6 0.00 0.00 0.00 53 1010.6
20260503215606 11 31 3.2 3.2 0.00 0.00 0.00 51 1010.6
20260503215103 11 15 3.2 4.8 0.00 0.00 0.00 51 1010.9
20260503214602 11 143 4.8 4.8 0.00 0.00 0.00 51 1010.8
20260503214057 11 65 3.2 3.2 0.00 0.00 0.00 49 1010.5
20260503213556 12 349 4.8 4.8 0.00 0.00 0.00 51 1010.6
20260503213052 11 40 1.6 3.2 0.00 0.00 0.00 50 1010.6
20260503212550 11 85 6.4 8.0 0.00 0.00 0.00 50 1010.5
20260503212047 11 303 0.0 0.0 0.00 0.00 0.00 51 1010.7
20260503211544 11 67 3.2 3.2 0.00 0.00 0.00 51 1011.1
20260503211039 11 119 1.6 3.2 0.00 0.00 0.00 52 1010.8
20260503210537 11 0 4.8 8.0 0.00 0.00 0.00 49 1010.8
20260503210032 11 45 3.2 4.8 0.00 0.00 0.00 51 1010.9
20260503205529 11 36 6.4 9.7 0.00 0.00 0.00 49 1010.9
20260503205026 11 4 3.2 3.2 0.00 0.00 0.00 51 1010.8
20260503204523 11 35 3.2 3.2 0.00 0.00 0.00 53 1010.8
20260503204020 11 71 4.8 8.0 0.00 0.00 0.00 52 1010.7
20260503203517 11 86 0.0 0.0 0.00 0.00 0.00 54 1010.9
20260503203014 11 313 1.6 3.2 0.00 0.00 0.00 53 1011.1
20260503202512 11 304 8.0 9.7 0.00 0.00 0.00 51 1011.1
20260503202010 11 21 4.8 4.8 0.00 0.00 0.00 53 1010.9
20260503201508 11 16 4.8 8.0 0.00 0.00 0.00 52 1010.8
20260503201004 11 122 3.2 4.8 0.00 0.00 0.00 52 1010.8
20260503200500 11 13 6.4 9.7 0.00 0.00 0.00 53 1011.1
20260503195957 11 10 3.2 4.8 0.00 0.00 0.00 55 1011.2
20260503195455 10 350 4.8 8.0 0.00 0.00 0.00 53 1011.3
20260503194951 11 74 4.8 8.0 0.00 0.00 0.00 51 1011.3
20260503194449 10 21 1.6 1.6 0.00 0.00 0.00 53 1011.3
20260503193943 10 34 9.7 14.5 0.00 0.00 0.00 53 1011.5
20260503193439 10 9 1.6 3.2 0.00 0.00 0.00 53 1011.5
20260503192935 10 352 3.2 4.8 0.00 0.00 0.00 53 1011.5
20260503192432 10 29 3.2 8.0 0.00 0.00 0.00 52 1011.8
20260503191927 10 12 3.2 3.2 0.00 0.00 0.00 53 1011.8
20260503191425 10 297 1.6 1.6 0.00 0.00 0.00 52 1011.7
20260503190921 10 358 3.2 3.2 0.00 0.00 0.00 52 1011.5
20260503190419 11 220 3.2 3.2 0.00 0.00 0.00 50 1011.7
20260503185915 11 89 4.8 4.8 0.00 0.00 0.00 50 1011.3
20260503185412 10 162 4.8 8.0 0.00 0.00 0.00 51 1011.7
20260503184911 10 16 3.2 3.2 0.00 0.00 0.00 50 1011.7
20260503184408 10 52 11.3 16.1 0.00 0.00 0.00 52 1011.6
20260503183904 10 35 4.8 8.0 0.00 0.00 0.00 50 1012.0
20260503183401 10 321 3.2 8.0 0.00 0.00 0.00 50 1012.1
20260503182858 11 64 8.0 9.7 0.00 0.00 0.00 49 1012.2
20260503182357 10 67 0.0 1.6 0.00 0.00 0.00 52 1012.0
20260503181853 11 76 4.8 4.8 0.00 0.00 0.00 48 1012.2
20260503181351 11 57 4.8 4.8 0.00 0.00 0.00 48 1012.1
20260503180847 10 27 3.2 3.2 0.00 0.00 0.00 47 1012.4
20260503180345 10 70 3.2 4.8 0.00 0.00 0.00 49 1012.2
20260503175841 10 313 4.8 8.0 0.00 0.00 0.00 49 1012.4
20260503175339 10 256 3.2 4.8 0.00 0.00 0.00 46 1012.6
20260503174835 11 215 4.8 4.8 0.00 0.00 0.00 47 1012.5
20260503174333 10 157 1.6 3.2 0.00 0.00 0.00 47 1012.5
20260503173828 10 282 1.6 3.2 0.00 0.00 0.00 51 1012.7
20260503173325 10 159 3.2 4.8 0.00 0.00 0.00 49 1012.7
20260503172821 10 47 4.8 9.7 0.00 0.00 0.00 50 1012.8
20260503172319 9 178 8.0 11.3 0.00 0.00 0.00 49 1013.0
20260503171815 8 35 8.0 9.7 0.00 0.00 0.00 49 1012.8
20260503171312 8 283 6.4 9.7 0.00 0.00 0.00 47 1012.8
20260503170809 10 318 11.3 14.5 0.00 0.00 0.00 48 1012.9
20260503170305 10 78 3.2 3.2 0.00 0.00 0.00 46 1012.9
20260503150658 8 321 6.4 8.0 0.00 0.00 0.00 51 1013.8
20260503150154 7 43 9.7 11.3 0.00 0.00 0.00 58 1013.9
20260503140118 6 341 6.4 9.7 0.00 0.00 0.00 61 1014.2
20260503131048 5 27 1.6 1.6 0.00 0.00 0.00 71 1014.0
20260503130545 5 33 3.2 3.2 0.00 0.00 0.00 70 1014.3
20260503110436 2 55 3.2 3.2 0.00 0.00 0.00 84 1014.0